• In Romania
  • List of Countries
  • For 7 days
  • Water Temperature
  • Satellite Maps
  • Weather Map
  • Weather Widgets
  • user-avatar
    Login

    Hourly Weather Lubango

    Today, 29 March, Wednesday

    Time Temperature Precipitation Wind Pressure Humidity
    00:00 +16°C° 0.9 mm 1 mps 608 mmHg 90%
    01:00 +15°C° 0.9 mm 1 mps 608 mmHg 91%
    02:00 +15°C° 0.7 mm 1 mps 608 mmHg 91%
    03:00 +15°C° 0.7 mm 1 mps 608 mmHg 91%
    04:00 +15°C° 0.7 mm 1 mps 608 mmHg 91%
    05:00 +15°C° 0.5 mm 1 mps 608 mmHg 89%
    06:00 +15°C° 0.5 mm 1 mps 608 mmHg 88%
    07:00 +16°C° 0.5 mm 1 mps 609 mmHg 87%
    08:00 +18°C° 0.3 mm 2 mps 610 mmHg 78%
    09:00 +20°C° 0.3 mm 3 mps 610 mmHg 69%
    10:00 +24°C° 0.3 mm 3 mps 611 mmHg 59%
    11:00 +25°C° 0.5 mm 3 mps 611 mmHg 56%
    12:00 +26°C° 0.5 mm 3 mps 611 mmHg 53%
    13:00 +27°C° 0.5 mm 2 mps 611 mmHg 50%
    14:00 +26°C° 0.9 mm 2 mps 610 mmHg 52%
    15:00 +26°C° 0.9 mm 2 mps 610 mmHg 54%
    16:00 +26°C° 0.9 mm 1 mps 609 mmHg 56%
    17:00 +23°C° 1.5 mm 1 mps 609 mmHg 63%
    18:00 +21°C° 1.5 mm 1 mps 608 mmHg 71%
    19:00 +19°C° 1.5 mm 1 mps 608 mmHg 79%
    20:00 +19°C° 0.7 mm 1 mps 608 mmHg 80%
    21:00 +19°C° 0.7 mm 1 mps 608 mmHg 81%
    22:00 +18°C° 0.7 mm 1 mps 609 mmHg 82%
    23:00 +18°C° 0.1 mm 1 mps 609 mmHg 83%

    Tomorrow, 30 March, Thursday

    Time Temperature Precipitation Wind Pressure Humidity
    00:00 +18°C° 0.1 mm 1 mps 609 mmHg 83%
    01:00 +18°C° 0.1 mm 1 mps 609 mmHg 83%
    02:00 +18°C° 0.2 mm 1 mps 608 mmHg 84%
    03:00 +16°C° 0.2 mm 1 mps 608 mmHg 84%
    04:00 +16°C° 0.2 mm 1 mps 608 mmHg 84%
    05:00 +16°C° 0 mm 1 mps 608 mmHg 84%
    06:00 +16°C° 0 mm 1 mps 608 mmHg 84%
    07:00 +18°C° 0 mm 1 mps 609 mmHg 84%
    08:00 +19°C° 0 mm 2 mps 610 mmHg 75%
    09:00 +21°C° 0 mm 3 mps 611 mmHg 66%
    10:00 +23°C° 0 mm 4 mps 612 mmHg 57%
    11:00 +25°C° 0.3 mm 3 mps 611 mmHg 54%
    12:00 +25°C° 0.3 mm 3 mps 611 mmHg 52%
    13:00 +26°C° 0.3 mm 3 mps 611 mmHg 50%
    14:00 +26°C° 0.6 mm 2 mps 610 mmHg 52%
    15:00 +25°C° 0.6 mm 2 mps 610 mmHg 54%
    16:00 +25°C° 0.6 mm 1 mps 609 mmHg 56%
    17:00 +23°C° 0.5 mm 1 mps 609 mmHg 63%
    18:00 +21°C° 0.5 mm 1 mps 609 mmHg 71%
    19:00 +19°C° 0.5 mm 1 mps 609 mmHg 78%
    20:00 +18°C° 0.2 mm 1 mps 609 mmHg 80%
    21:00 +18°C° 0.2 mm 1 mps 609 mmHg 82%
    22:00 +18°C° 0.2 mm 1 mps 610 mmHg 84%
    23:00 +16°C° 0.1 mm 1 mps 610 mmHg 85%

    Day after tomorrow, 31 March, Friday

    Time Temperature Precipitation Wind Pressure Humidity
    00:00 +16°C° 0.1 mm 1 mps 609 mmHg 85%
    01:00 +16°C° 0.1 mm 1 mps 609 mmHg 85%
    02:00 +16°C° 0.3 mm 1 mps 609 mmHg 86%
    03:00 +16°C° 0.3 mm 1 mps 608 mmHg 86%
    04:00 +15°C° 0.3 mm 1 mps 608 mmHg 87%
    05:00 +15°C° 0.1 mm 1 mps 608 mmHg 87%
    06:00 +16°C° 0.1 mm 1 mps 609 mmHg 86%
    07:00 +16°C° 0.1 mm 1 mps 609 mmHg 85%
    08:00 +18°C° 0.1 mm 2 mps 610 mmHg 78%
    09:00 +19°C° 0.1 mm 3 mps 611 mmHg 70%
    10:00 +21°C° 0.1 mm 3 mps 612 mmHg 62%
    11:00 +22°C° 0.4 mm 3 mps 612 mmHg 59%
    12:00 +24°C° 0.4 mm 3 mps 612 mmHg 56%
    13:00 +25°C° 0.4 mm 3 mps 611 mmHg 53%
    14:00 +24°C° 0.7 mm 2 mps 611 mmHg 56%
    15:00 +24°C° 0.7 mm 2 mps 610 mmHg 60%
    16:00 +23°C° 0.7 mm 1 mps 610 mmHg 63%
    17:00 +21°C° 0.7 mm 1 mps 610 mmHg 70%
    18:00 +20°C° 0.7 mm 1 mps 609 mmHg 78%
    19:00 +18°C° 0.7 mm 1 mps 609 mmHg 85%
    20:00 +18°C° 0.5 mm 1 mps 610 mmHg 86%
    21:00 +16°C° 0.5 mm 1 mps 610 mmHg 87%
    22:00 +16°C° 0.5 mm 1 mps 610 mmHg 88%
    23:00 +16°C° 0.1 mm 1 mps 610 mmHg 87%

    1 April, Saturday

    Time Temperature Precipitation Wind Pressure Humidity
    00:00 +15°C° 0.1 mm 1 mps 609 mmHg 87%
    01:00 +15°C° 0.1 mm 1 mps 609 mmHg 86%
    02:00 +15°C° 0 mm 1 mps 609 mmHg 86%
    03:00 +15°C° 0 mm 1 mps 608 mmHg 86%
    04:00 +14°C° 0 mm 1 mps 608 mmHg 86%
    05:00 +15°C° 0 mm 1 mps 609 mmHg 85%
    06:00 +15°C° 0 mm 1 mps 609 mmHg 84%
    07:00 +15°C° 0 mm 1 mps 610 mmHg 83%
    08:00 +18°C° 0 mm 2 mps 611 mmHg 72%
    09:00 +20°C° 0 mm 2 mps 612 mmHg 61%
    10:00 +22°C° 0 mm 3 mps 613 mmHg 50%
    11:00 +24°C° 0 mm 3 mps 612 mmHg 46%
    12:00 +26°C° 0 mm 3 mps 612 mmHg 42%
    13:00 +27°C° 0 mm 3 mps 612 mmHg 37%
    14:00 +26°C° 0 mm 2 mps 611 mmHg 39%
    15:00 +26°C° 0 mm 2 mps 611 mmHg 41%
    16:00 +26°C° 0 mm 2 mps 610 mmHg 43%
    17:00 +23°C° 0 mm 1 mps 610 mmHg 50%
    18:00 +21°C° 0 mm 1 mps 609 mmHg 58%
    19:00 +19°C° 0 mm 1 mps 609 mmHg 65%
    20:00 +18°C° 0 mm 1 mps 609 mmHg 68%
    21:00 +18°C° 0 mm 1 mps 609 mmHg 71%
    22:00 +16°C° 0 mm 1 mps 610 mmHg 74%
    23:00 +16°C° 0 mm 1 mps 609 mmHg 74%

    2 April, Sunday

    Time Temperature Precipitation Wind Pressure Humidity
    00:00 +16°C° 0 mm 1 mps 609 mmHg 74%
    01:00 +16°C° 0 mm 1 mps 609 mmHg 74%
    02:00 +15°C° 0 mm 1 mps 608 mmHg 75%
    03:00 +15°C° 0 mm 1 mps 608 mmHg 75%
    04:00 +15°C° 0 mm 1 mps 608 mmHg 76%
    05:00 +15°C° 0 mm 1 mps 608 mmHg 75%
    06:00 +15°C° 0 mm 2 mps 609 mmHg 74%
    07:00 +15°C° 0 mm 2 mps 609 mmHg 73%
    08:00 +18°C° 0 mm 2 mps 610 mmHg 62%
    09:00 +21°C° 0 mm 3 mps 611 mmHg 52%
    10:00 +25°C° 0 mm 4 mps 613 mmHg 42%
    11:00 +26°C° 0 mm 4 mps 612 mmHg 39%
    12:00 +27°C° 0 mm 3 mps 612 mmHg 36%
    13:00 +28°C° 0 mm 3 mps 612 mmHg 33%
    14:00 +28°C° 0 mm 3 mps 611 mmHg 33%
    15:00 +27°C° 0 mm 2 mps 611 mmHg 33%
    16:00 +27°C° 0 mm 2 mps 610 mmHg 33%
    17:00 +24°C° 0 mm 1 mps 610 mmHg 40%
    18:00 +21°C° 0 mm 1 mps 609 mmHg 46%
    19:00 +18°C° 0 mm 1 mps 608 mmHg 52%
    20:00 +18°C° 0 mm 1 mps 608 mmHg 52%
    21:00 +16°C° 0 mm 1 mps 609 mmHg 51%
    22:00 +15°C° 0 mm 1 mps 609 mmHg 51%
    23:00 +15°C° 0 mm 1 mps 608 mmHg 50%

    3 April, Monday

    Time Temperature Precipitation Wind Pressure Humidity
    00:00 +14°C° 0 mm 1 mps 608 mmHg 50%
    01:00 +14°C° 0 mm 1 mps 608 mmHg 50%
    02:00 +14°C° 0 mm 1 mps 607 mmHg 49%
    03:00 +13°C° 0 mm 2 mps 607 mmHg 48%
    04:00 +13°C° 0 mm 2 mps 607 mmHg 47%
    05:00 +13°C° 0 mm 2 mps 608 mmHg 48%
    06:00 +14°C° 0 mm 2 mps 608 mmHg 49%
    07:00 +14°C° 0 mm 2 mps 609 mmHg 50%
    08:00 +17°C° 0 mm 3 mps 610 mmHg 44%
    09:00 +20°C° 0 mm 3 mps 611 mmHg 38%
    10:00 +25°C° 0 mm 4 mps 612 mmHg 32%
    11:00 +26°C° 0 mm 4 mps 612 mmHg 30%
    12:00 +27°C° 0 mm 4 mps 612 mmHg 28%
    13:00 +28°C° 0 mm 4 mps 611 mmHg 27%
    14:00 +28°C° 0 mm 3 mps 611 mmHg 28%
    15:00 +28°C° 0 mm 3 mps 611 mmHg 29%
    16:00 +27°C° 0 mm 2 mps 610 mmHg 30%
    17:00 +24°C° 0 mm 2 mps 609 mmHg 36%
    18:00 +20°C° 0 mm 2 mps 608 mmHg 43%
    19:00 +18°C° 0 mm 1 mps 608 mmHg 50%
    20:00 +16°C° 0 mm 2 mps 608 mmHg 50%
    21:00 +16°C° 0 mm 2 mps 608 mmHg 49%
    22:00 +16°C° 0 mm 2 mps 608 mmHg 49%
    23:00 +15°C° 0 mm 2 mps 608 mmHg 50%
    Show more